| time (UTC) | temp C | wind direction | speed KPH | gust KPH | rain 1hr cm | rain 24hr cm | rain mn cm | humidity % | barometer mb |
| 20260502163029 | 22 | 11 | 0.0 | 0.0 | 0.00 | 4.42 | 0.00 | 56 | 1018.7 |
| 20260502161526 | 21 | 34 | 0.0 | 0.0 | 0.00 | 4.42 | 0.00 | 60 | 1018.6 |
| 20260502151514 | 19 | 18 | 0.0 | 0.0 | 0.00 | 4.55 | 0.00 | 69 | 1018.3 |
| 20260502123039 | 12 | 346 | 0.0 | 0.0 | 0.00 | 5.18 | 0.00 | 94 | 1016.8 |
| 20260502121538 | 11 | 333 | 0.0 | 0.0 | 0.00 | 5.18 | 0.00 | 94 | 1016.6 |
| 20260502114538 | 11 | 333 | 0.0 | 0.0 | 0.00 | 5.23 | 0.00 | 93 | 1016.2 |
| 20260502113033 | 11 | 360 | 0.0 | 0.0 | 0.00 | 5.23 | 0.00 | 93 | 1016.1 |
| 20260502111532 | 11 | 360 | 0.0 | 0.0 | 0.00 | 5.23 | 0.00 | 93 | 1016.0 |
| 20260502110030 | 11 | 360 | 0.0 | 0.0 | 0.00 | 5.36 | 0.00 | 92 | 1015.8 |
| 20260502104539 | 12 | 360 | 0.0 | 0.0 | 0.00 | 5.36 | 0.00 | 92 | 1015.6 |
| 20260502103127 | 12 | 360 | 0.0 | 0.0 | 0.00 | 5.36 | 0.00 | 92 | 1015.5 |
| 20260502101523 | 12 | 360 | 0.0 | 0.0 | 0.00 | 5.36 | 0.00 | 91 | 1015.3 |
| 20260502091514 | 12 | 59 | 0.0 | 0.0 | 0.00 | 7.01 | 0.00 | 89 | 1014.3 |
| 20260502071507 | 13 | 14 | 0.0 | 0.0 | 0.00 | 7.59 | 0.00 | 92 | 1013.9 |
| 20260502070013 | 13 | 14 | 0.0 | 0.0 | 0.00 | 7.59 | 0.00 | 92 | 1014.0 |
| 20260502064515 | 13 | 14 | 0.0 | 0.0 | 0.00 | 7.59 | 0.00 | 92 | 1014.0 |
| 20260502063002 | 13 | 14 | 0.0 | 0.0 | 0.00 | 7.59 | 0.00 | 93 | 1013.7 |
| 20260502061601 | 13 | 5 | 0.0 | 0.0 | 0.00 | 7.59 | 0.00 | 93 | 1013.7 |
| 20260502060112 | 13 | 307 | 0.0 | 0.0 | 0.00 | 7.77 | 0.00 | 93 | 1013.7 |
| 20260502054602 | 13 | 24 | 0.0 | 0.0 | 0.00 | 7.77 | 0.00 | 94 | 1013.7 |
| 20260502053106 | 13 | 26 | 0.0 | 0.0 | 0.00 | 7.77 | 0.00 | 94 | 1013.6 |
| 20260502051601 | 13 | 5 | 0.0 | 0.0 | 0.00 | 7.77 | 0.00 | 95 | 1013.5 |
| 20260502050058 | 13 | 25 | 0.0 | 0.0 | 0.00 | 8.48 | 7.77 | 95 | 1013.4 |
| 20260502044556 | 13 | 24 | 0.0 | 0.0 | 0.00 | 8.48 | 7.77 | 95 | 1013.2 |
| 20260502043054 | 13 | 27 | 0.0 | 0.0 | 0.00 | 8.48 | 7.77 | 95 | 1013.4 |
| 20260502041552 | 13 | 56 | 0.0 | 0.0 | 0.00 | 8.48 | 7.77 | 95 | 1013.4 |
| 20260502040051 | 13 | 48 | 0.0 | 0.0 | 0.00 | 8.48 | 7.77 | 96 | 1013.4 |
| 20260502034550 | 13 | 5 | 0.0 | 0.0 | 0.03 | 8.48 | 7.77 | 96 | 1013.4 |
| 20260502033053 | 13 | 15 | 0.0 | 0.0 | 0.05 | 8.48 | 7.77 | 96 | 1012.9 |
| 20260502031547 | 13 | 360 | 0.0 | 0.0 | 0.08 | 8.48 | 7.77 | 96 | 1012.9 |
| 20260502030043 | 13 | 360 | 0.0 | 0.0 | 0.10 | 8.48 | 7.77 | 96 | 1012.4 |
| 20260502024542 | 13 | 50 | 0.0 | 0.0 | 0.15 | 8.46 | 7.75 | 96 | 1012.0 |
| 20260502023040 | 13 | 18 | 0.0 | 0.0 | 0.13 | 8.43 | 7.72 | 96 | 1012.0 |
| 20260502021537 | 14 | 27 | 0.0 | 0.0 | 0.15 | 8.41 | 7.70 | 96 | 1011.6 |
| 20260502020035 | 14 | 323 | 0.0 | 0.0 | 0.23 | 8.38 | 7.67 | 96 | 1011.4 |
| 20260502014535 | 14 | 34 | 0.0 | 0.0 | 0.23 | 8.31 | 7.59 | 96 | 1011.2 |
| 20260502013030 | 15 | 304 | 0.0 | 0.0 | 0.30 | 8.31 | 7.59 | 96 | 1011.2 |
| 20260502011550 | 15 | 342 | 0.0 | 0.0 | 0.33 | 8.23 | 7.52 | 96 | 1010.5 |
| 20260502010030 | 15 | 67 | 0.0 | 0.0 | 0.28 | 8.13 | 7.42 | 96 | 1010.8 |
| 20260502004550 | 15 | 321 | 0.0 | 0.0 | 0.36 | 8.08 | 7.37 | 96 | 1010.7 |
| 20260502003028 | 15 | 351 | 0.0 | 0.0 | 0.28 | 7.98 | 7.26 | 96 | 1009.2 |
| 20260502001526 | 15 | 21 | 0.0 | 0.0 | 0.23 | 7.90 | 7.19 | 96 | 1009.9 |
| 20260502000025 | 15 | 27 | 0.0 | 0.0 | 0.51 | 7.85 | 7.14 | 96 | 1009.7 |
| 20260501234525 | 15 | 61 | 0.0 | 0.0 | 0.41 | 7.72 | 7.01 | 96 | 1010.5 |
| 20260501233024 | 15 | 5 | 0.0 | 0.0 | 0.38 | 7.70 | 6.99 | 96 | 1008.8 |
| 20260501231534 | 15 | 44 | 0.0 | 0.0 | 0.36 | 7.67 | 6.96 | 95 | 1008.3 |
| 20260501230021 | 16 | 38 | 0.0 | 0.0 | 0.03 | 7.34 | 6.63 | 95 | 1009.7 |
| 20260501224521 | 16 | 44 | 0.0 | 0.0 | 0.03 | 7.32 | 6.60 | 95 | 1008.3 |
| 20260501223018 | 16 | 36 | 0.0 | 0.0 | 0.05 | 7.32 | 6.60 | 96 | 1007.8 |
| 20260501221517 | 16 | 40 | 0.0 | 0.0 | 0.15 | 7.32 | 6.60 | 97 | 1007.7 |
| 20260501220020 | 16 | 36 | 0.0 | 0.0 | 0.15 | 7.32 | 6.60 | 97 | 1008.4 |
| 20260501214517 | 16 | 28 | 0.0 | 0.0 | 0.23 | 7.29 | 6.58 | 97 | 1008.3 |
| 20260501213024 | 16 | 18 | 0.0 | 0.0 | 0.53 | 7.26 | 6.55 | 97 | 1009.2 |
| 20260501211514 | 16 | 355 | 0.0 | 0.0 | 0.69 | 7.16 | 6.45 | 97 | 1008.5 |
| 20260501210013 | 16 | 5 | 0.0 | 0.0 | 0.79 | 7.16 | 6.45 | 97 | 1007.2 |
| 20260501204512 | 16 | 348 | 0.0 | 0.0 | 0.79 | 7.04 | 6.32 | 97 | 1007.8 |
| 20260501203011 | 16 | 22 | 0.0 | 0.0 | 0.58 | 6.73 | 6.02 | 97 | 1007.0 |
| 20260501201511 | 17 | 100 | 0.0 | 0.0 | 0.36 | 6.45 | 5.77 | 97 | 1007.6 |
| 20260501200010 | 17 | 5 | 0.0 | 0.0 | 0.41 | 6.35 | 5.66 | 97 | 1007.4 |
| 20260501194516 | 17 | 80 | 0.0 | 0.0 | 0.30 | 6.25 | 5.54 | 97 | 1006.9 |
| 20260501193021 | 17 | 51 | 0.0 | 0.0 | 0.53 | 6.15 | 5.44 | 97 | 1006.7 |
| 20260501191509 | 17 | 70 | 0.0 | 0.0 | 0.71 | 6.12 | 5.41 | 97 | 1007.0 |
| 20260501190028 | 17 | 74 | 0.0 | 0.0 | 0.86 | 5.97 | 5.23 | 97 | 1007.7 |
| 20260501184508 | 17 | 76 | 0.0 | 0.0 | 1.32 | 5.94 | 5.23 | 97 | 1007.5 |
| 20260501183015 | 16 | 62 | 0.0 | 0.0 | 1.22 | 5.61 | 4.90 | 97 | 1006.9 |
| 20260501181506 | 16 | 43 | 0.0 | 0.0 | 1.04 | 5.41 | 4.70 | 96 | 1006.2 |
| 20260501180004 | 17 | 25 | 0.0 | 0.0 | 0.71 | 5.08 | 4.37 | 96 | 1006.0 |
| 20260501174508 | 17 | 76 | 0.0 | 0.0 | 0.28 | 4.62 | 3.91 | 96 | 1008.1 |
| 20260501173001 | 17 | 63 | 0.0 | 0.0 | 0.10 | 4.39 | 3.68 | 96 | 1007.7 |